Miscellaneous Local Product
Issued by NWS North Platte, NE

Home | Current Version | Previous Version | Text Only | Print | Product List | Glossary On
Versions: 1 2 3 4 5 6 7 8 9 10 11 12 13 14 15 16 17 18 19 20 21 22 23 24 25 26 27 28 29 30 31 32 33 34 35 36 37 38 39 40 41 42 43 44 45 46 47 48 49 50
000
AXUS43 KLBF 211610
MISLBF


WESTERN AND NORTH CENTRAL NEBRASKA HOURLY WEATHER ROUNDUP
NATIONAL WEATHER SERVICE NORTH PLATTE NE
1100 AM CDT TUE OCT 21 2014

***STATIONS NOT REPORTING VARIABLES SUCH AS SKY/WEATHER OR
PRESSURE ARE PROVIDED BY THE NEBRASKA DEPARTMENT OF
ROADS...RAWS...AND APRS NETWORKS...AND ARE NOT UNDER
NATIONAL WEATHER SERVICE QUALITY CONTROL***

...OBSERVATIONS IN AND NEAR THE EASTERN PANHANDLE OF NEBRASKA...

CITY           SKY/WX    TMP DP  RH WIND       PRES   REMARKS
PINE RIDGE     SUNNY     62  46  55 S14       29.90S
CHADRON        SUNNY     64  46  52 SW3       29.89F
ALLIANCE       SUNNY     61  48  62 S12       29.95F
SIDNEY         SUNNY     61  49  64 SW12      30.00S
WHITECLAY        N/A     60  44  57 S14         N/A
RUSHVILLE        N/A     60  44  54 SW20        N/A
CRESCENT LAKE    N/A     61  50  66 S8          N/A
LISCO            N/A     65  49  56 E8          N/A
BIG SPRINGS      N/A     50  46  84 SE3         N/A
LEWELLEN         N/A     63  51  63 S13         N/A
$$

...OBSERVATIONS IN NORTH CENTRAL NEBRASKA...

CITY           SKY/WX    TMP DP  RH WIND       PRES   REMARKS
VALENTINE      SUNNY     68  49  50 S22G30    29.95F
THEDFORD       SUNNY     66  51  58 S20       30.02F
AINSWORTH      SUNNY     66  49  55 S17       29.99S
O`NEILL        SUNNY     67  48  50 SW14      30.03F
ORD            SUNNY     66  47  50 S12       30.05S
BROKEN BOW     SUNNY     66  47  50 S13G23    30.05F
BROWNLEE         N/A     67  52  58 S21         N/A
SPRINGVIEW       N/A     67  50  54 S16G24      N/A
BREWSTER         N/A     74  50  42 S18         N/A
ROSE             N/A     71  53  52 SE12        N/A
NEWPORT          N/A     71  50  47 S14         N/A
SARGENT          N/A     67  47  48 S6          N/A
COMSTOCK         N/A     72  48  42 S12         N/A
CHAMBERS         N/A     69  47  45 SW12        N/A
$$

...OBSERVATIONS IN SOUTHWEST NEBRASKA AND FAR NORTHEAST COLORADO...

CITY           SKY/WX    TMP DP  RH WIND       PRES   REMARKS
WRAY           FAIR      67  51  57 S10       30.02F
HOLYOKE        FAIR      63  52  67 S9G16     30.01F
IMPERIAL       CLOUDY    58  55  90 S9G22     30.04S FOG
OGALLALA       SUNNY     64  55  72 S12       30.02S
NORTH PLATTE   SUNNY     64  48  56 S16G23    30.05S
MCCOOK         MOSUNNY   65  51  60 S12G18    30.06F
LEXINGTON      SUNNY     67  47  47 S12       30.06F
PAXTON           N/A     50  46  84 CALM        N/A
SUTHERLAND       N/A     62  55  78 S12         N/A
BRADY            N/A     64  52  65 CALM        N/A
GOTHENBURG       N/A     57  43  60 SE3         N/A
CALLAWAY         N/A     57  48  73 S12         N/A
$$

...SOME WEATHER OBSERVATIONS FROM AROUND THE REGION...

CITY           SKY/WX    TMP DP  RH WIND       PRES   REMARKS
DENVER         MOSUNNY   66  38  35 SW8       30.03F
LARAMIE        MOSUNNY   52  36  54 S3        30.10F
CHEYENNE       MOSUNNY   67  37  33 W16       30.05S
SCOTTSBLUFF    MOSUNNY   59  44  57 CALM      29.97F
RAPID CITY     SUNNY     64  43  46 SE8       29.83F
PIERRE         SUNNY     66  43  43 SE13      29.85F
WINNER         FAIR      71  46  40 S24G36    29.92S
SIOUX FALLS    SUNNY     61  42  49 SE12      30.06F
OMAHA          SUNNY     58  45  62 S5        30.13F
GRAND ISLAND   SUNNY     64  46  52 SW8       30.10S
KANSAS CITY    SUNNY     64  48  56 CALM      30.15R
WICHITA        MOSUNNY   71  55  56 SE12      30.11S
HAYS           PTSUNNY   61  52  72 SE7       30.10S
LIBERAL        SUNNY     61  55  82 SW6       30.11F
GOODLAND       CLOUDY    56  56 100 S17       30.07S FOG
$$



USA.gov is the U.S. government's official web portal to all federal, state and local government web resources and services.